EW6058 Weather Reports


Display with metric or nautical units.
time (UTC)temp
F
wind
direction
speed
MPH
gust
MPH
rain 1hr
in
rain 24hr
in
rain mn
in
humidity
%
barometer
mb
20260506082004 55 206 1.0 4.0 0.00 0.00 0.00 90 1013.8
20260506081527 55 200 2.0 4.0 0.00 0.00 0.00 90 1013.9
20260506081010 56 176 1.0 3.0 0.00 0.00 0.00 90 1014.0
20260506080509 56 161 2.0 5.0 0.00 0.00 0.00 90 1013.9
20260506073507 56 181 2.0 5.0 0.00 0.00 0.00 90 1013.8
20260506073010 56 195 2.0 5.0 0.00 0.00 0.00 90 1013.8
20260506072507 56 226 2.0 5.0 0.00 0.00 0.00 90 1013.7
20260506072010 56 176 2.0 5.0 0.00 0.00 0.00 91 1013.9
20260506071519 56 175 1.0 4.0 0.00 0.00 0.00 91 1013.8
20260506071009 56 185 2.0 4.0 0.00 0.00 0.00 91 1013.8
20260506070506 56 210 1.0 4.0 0.00 0.00 0.00 90 1013.8
20260506062506 55 145 2.0 3.0 0.00 0.00 0.00 90 1013.7
20260506062007 56 193 1.0 4.0 0.00 0.00 0.00 90 1013.7
20260506061514 56 175 1.0 5.0 0.00 0.00 0.00 89 1013.8
20260506061006 56 215 2.0 5.0 0.00 0.00 0.00 89 1013.9
20260506060505 56 157 2.0 4.0 0.00 0.00 0.00 89 1014.0
20260506051010 56 160 2.0 4.0 0.00 0.00 0.00 88 1014.3
20260506050507 56 166 2.0 4.0 0.00 0.00 0.00 88 1014.3
20260506045002 56 180 2.0 6.0 0.00 0.00 0.00 87 1014.3
20260506044504 56 174 2.0 5.0 0.00 0.00 0.00 87 1014.2
20260506044004 56 162 2.0 6.0 0.00 0.00 0.00 87 1014.2
20260506043505 56 174 1.0 6.0 0.00 0.00 0.00 87 1014.3
20260506043006 56 150 2.0 5.0 0.00 0.00 0.00 87 1014.4
20260506042504 56 147 1.0 5.0 0.00 0.00 0.00 87 1014.3
20260506042006 56 226 1.0 5.0 0.00 0.00 0.00 87 1014.3
20260506041508 56 184 2.0 7.0 0.00 0.00 0.00 87 1014.3
20260506041006 56 134 2.0 7.0 0.00 0.00 0.00 87 1014.2
20260506040505 56 145 2.0 6.0 0.00 0.00 0.00 87 1014.3
20260506040013 56 264 2.0 6.0 0.00 0.00 0.00 87 1014.3
20260506035508 56 102 2.0 5.0 0.00 0.00 0.00 86 1014.4
20260506035007 56 162 1.0 6.0 0.00 0.00 0.00 86 1014.4
20260506034517 56 167 2.0 6.0 0.00 0.00 0.00 86 1014.5
20260506034004 56 178 3.0 6.0 0.00 0.00 0.00 86 1014.3
20260506033504 57 174 2.0 6.0 0.00 0.00 0.00 85 1014.1
20260506033007 57 174 2.0 6.0 0.00 0.00 0.00 85 1014.3
20260506032503 57 172 2.0 6.0 0.00 0.00 0.00 85 1014.2
20260506032003 57 184 2.0 6.0 0.00 0.00 0.00 85 1014.1
20260506031503 57 174 2.0 5.0 0.00 0.00 0.00 85 1014.0
20260506031003 57 202 3.0 5.0 0.00 0.00 0.00 85 1014.0
20260506030505 57 165 2.0 5.0 0.00 0.00 0.00 84 1014.0
20260506030012 57 160 3.0 6.0 0.00 0.00 0.00 84 1013.8
20260506025503 57 162 3.0 6.0 0.00 0.00 0.00 84 1013.9
20260506025010 57 183 2.0 4.0 0.00 0.00 0.00 84 1013.9
20260506024514 57 172 2.0 5.0 0.00 0.00 0.00 84 1013.9
20260506024008 56 196 3.0 5.0 0.00 0.00 0.00 84 1013.9
20260506023508 56 205 2.0 3.0 0.00 0.00 0.00 84 1013.9
20260506023035 56 168 1.0 4.0 0.00 0.00 0.00 84 1014.0
20260506022503 56 191 2.0 4.0 0.00 0.00 0.00 84 1014.1
20260506022003 56 179 2.0 7.0 0.00 0.00 0.00 84 1014.0
20260506021503 56 160 3.0 7.0 0.00 0.00 0.00 84 1014.0
20260506021004 56 226 2.0 6.0 0.00 0.00 0.00 84 1014.1
20260506020503 56 179 2.0 6.0 0.00 0.00 0.00 83 1014.1
20260506020008 56 173 3.0 6.0 0.00 0.00 0.00 84 1014.0
20260506015503 55 184 2.0 5.0 0.00 0.00 0.00 83 1014.1
20260506015004 55 164 1.0 4.0 0.00 0.00 0.00 83 1014.0
20260506014518 55 221 2.0 4.0 0.00 0.00 0.00 83 1014.0
20260506014003 55 163 2.0 4.0 0.00 0.00 0.00 83 1014.1
20260506013507 55 180 1.0 4.0 0.00 0.00 0.00 82 1014.1
20260506013024 55 184 1.0 5.0 0.00 0.00 0.00 81 1014.1
20260506012508 55 166 1.0 5.0 0.00 0.00 0.00 81 1014.1
20260506012008 55 176 1.0 5.0 0.00 0.00 0.00 81 1014.0
20260506011521 55 174 1.0 5.0 0.00 0.00 0.00 80 1014.0
20260506011004 55 176 1.0 3.0 0.00 0.00 0.00 80 1014.0
20260506010504 55 174 1.0 3.0 0.00 0.00 0.00 79 1013.9
20260506010004 55 178 2.0 3.0 0.00 0.00 0.00 79 1013.8
20260506005503 56 180 1.0 4.0 0.00 0.00 0.00 78 1013.8
20260506005004 56 173 2.0 5.0 0.00 0.00 0.00 77 1013.7
20260506004511 56 147 2.0 5.0 0.00 0.00 0.00 77 1013.4
20260506004006 56 177 2.0 5.0 0.00 0.00 0.00 77 1013.1
20260506003508 55 195 2.0 5.0 0.00 0.00 0.00 77 1012.9
20260506003016 55 177 1.0 5.0 0.00 0.00 0.00 77 1012.8
20260506002506 55 164 1.0 5.0 0.00 0.00 0.00 76 1012.7
20260506002006 55 169 2.0 4.0 0.00 0.00 0.00 76 1012.6
20260506001520 55 158 2.0 4.0 0.00 0.00 0.00 76 1012.5
20260506001008 55 153 2.0 4.0 0.00 0.00 0.00 77 1012.4
20260506000509 55 148 2.0 4.0 0.00 0.00 0.00 77 1012.5
20260506000024 55 190 1.0 4.0 0.00 0.00 0.00 77 1012.4
20260505235505 56 167 1.0 5.0 0.00 0.00 0.00 77 1012.7
20260505235005 56 152 1.0 5.0 0.00 0.00 0.00 77 1012.7
20260505234508 56 146 1.0 4.0 0.00 0.00 0.00 77 1012.7
20260505234004 56 158 2.0 6.0 0.00 0.00 0.00 77 1012.7
20260505233508 56 163 2.0 6.0 0.00 0.00 0.00 78 1012.7
20260505233011 56 150 1.0 4.0 0.00 0.00 0.00 78 1012.5
20260505232508 56 215 2.0 4.0 0.00 0.00 0.00 78 1012.4
20260505232006 56 162 2.0 6.0 0.00 0.00 0.00 78 1012.5
20260505231534 56 205 2.0 6.0 0.00 0.00 0.00 79 1012.3
20260505231008 56 186 1.0 7.0 0.00 0.00 0.00 79 1012.2
20260505230508 56 158 2.0 7.0 0.00 0.00 0.00 79 1012.1
20260505230026 56 147 3.0 6.0 0.00 0.00 0.00 79 1012.0
20260505225511 57 148 1.0 6.0 0.00 0.00 0.00 79 1012.1
20260505225009 57 172 2.0 6.0 0.00 0.00 0.00 79 1012.1
20260505224524 57 167 3.0 6.0 0.00 0.00 0.00 79 1012.1
20260505224003 57 191 3.0 6.0 0.00 0.00 0.00 78 1012.0
20260505223505 57 214 1.0 4.0 0.00 0.00 0.00 78 1011.9
20260505223007 58 172 2.0 7.0 0.00 0.00 0.00 78 1011.9
20260505222507 58 262 3.0 7.0 0.00 0.00 0.00 78 1011.8
20260505222008 58 151 3.0 6.0 0.00 0.00 0.00 77 1011.8
20260505221514 58 173 2.0 5.0 0.00 0.00 0.00 78 1011.8
20260505221007 58 148 2.0 5.0 0.00 0.00 0.00 77 1011.9
20260505220504 58 177 2.0 4.0 0.00 0.00 0.00 77 1011.8
20260505220024 58 191 1.0 7.0 0.00 0.00 0.00 77 1011.8
20260505215508 59 173 2.0 7.0 0.00 0.00 0.00 76 1011.9
20260505215007 59 180 3.0 6.0 0.00 0.00 0.00 76 1012.0
20260505214525 59 91 2.0 7.0 0.00 0.00 0.00 76 1012.0
20260505214013 59 160 3.0 7.0 0.00 0.00 0.00 75 1011.9
20260505213510 59 176 3.0 7.0 0.00 0.00 0.00 75 1012.0
20260505213034 59 58 2.0 7.0 0.00 0.00 0.00 75 1011.6
20260505212508 59 167 2.0 7.0 0.00 0.00 0.00 75 1011.7
20260505212007 59 138 2.0 6.0 0.00 0.00 0.00 75 1011.9
20260505211512 59 187 2.0 6.0 0.00 0.00 0.00 74 1011.7
20260505211007 60 149 2.0 6.0 0.00 0.00 0.00 74 1011.8
20260505210506 60 170 3.0 8.0 0.00 0.00 0.00 73 1011.6
20260505210016 60 209 3.0 8.0 0.00 0.00 0.00 73 1011.7
20260505205513 60 218 3.0 8.0 0.00 0.00 0.00 73 1011.6
20260505205010 60 211 2.0 8.0 0.00 0.00 0.00 73 1011.6
20260505204521 60 174 2.0 9.0 0.00 0.00 0.00 72 1011.8
20260505204008 60 185 2.0 9.0 0.00 0.00 0.00 72 1011.8
20260505203508 61 160 2.0 9.0 0.00 0.00 0.00 72 1011.6
20260505203029 61 172 3.0 9.0 0.00 0.00 0.00 71 1011.5
20260505202510 61 169 2.0 5.0 0.00 0.00 0.00 72 1011.5
20260505202014 61 181 3.0 7.0 0.00 0.00 0.00 71 1011.4
20260505201533 61 179 3.0 7.0 0.00 0.00 0.00 71 1011.7
20260505201003 62 131 2.0 4.0 0.00 0.00 0.00 70 1011.8
20260505200508 62 169 2.0 6.0 0.00 0.00 0.00 71 1011.8
20260505200016 62 164 2.0 9.0 0.00 0.00 0.00 70 1011.8
20260505195502 62 153 2.0 9.0 0.00 0.00 0.00 71 1011.9
20260505195002 61 157 1.0 5.0 0.00 0.00 0.00 72 1011.9
20260505194504 61 179 2.0 6.0 0.00 0.00 0.00 72 1012.0
20260505194007 61 140 3.0 6.0 0.00 0.00 0.00 71 1011.9
20260505193503 61 155 3.0 7.0 0.00 0.00 0.00 71 1012.0
20260505193005 61 148 2.0 7.0 0.00 0.00 0.00 71 1011.9
20260505192507 62 162 3.0 7.0 0.00 0.00 0.00 70 1011.9
20260505192004 62 169 1.0 5.0 0.00 0.00 0.00 70 1011.9
20260505191510 62 183 2.0 4.0 0.00 0.00 0.00 70 1012.1
20260505191006 62 170 2.0 4.0 0.00 0.00 0.00 71 1012.2
20260505190505 62 213 2.0 5.0 0.00 0.00 0.00 70 1012.2
20260505190013 62 135 2.0 5.0 0.00 0.00 0.00 70 1012.3
20260505185509 63 170 3.0 5.0 0.00 0.00 0.00 69 1012.3
20260505185008 63 200 3.0 5.0 0.00 0.00 0.00 68 1012.4
20260505184516 64 160 2.0 5.0 0.00 0.00 0.00 68 1012.3
20260505184002 63 165 1.0 4.0 0.00 0.00 0.00 69 1012.4
20260505183504 63 181 2.0 4.0 0.00 0.00 0.00 69 1012.5
20260505183011 63 180 1.0 5.0 0.00 0.00 0.00 69 1012.4
20260505182503 63 190 2.0 6.0 0.00 0.00 0.00 69 1012.5
20260505182003 63 141 2.0 6.0 0.00 0.00 0.00 70 1012.4
20260505181508 63 200 3.0 7.0 0.00 0.00 0.00 68 1012.5
20260505181004 63 194 2.0 7.0 0.00 0.00 0.00 68 1012.4
20260505180503 64 169 2.0 6.0 0.00 0.00 0.00 68 1012.6
20260505180013 64 186 1.0 6.0 0.00 0.00 0.00 69 1012.5
20260505175506 63 162 2.0 5.0 0.00 0.00 0.00 69 1012.6
20260505175006 63 172 2.0 7.0 0.00 0.00 0.00 68 1012.5
20260505174526 64 221 2.0 7.0 0.00 0.00 0.00 69 1012.6
20260505174008 64 156 2.0 5.0 0.00 0.00 0.00 66 1012.8
20260505173508 65 178 2.0 4.0 0.00 0.00 0.00 67 1012.8
20260505173019 64 162 1.0 7.0 0.00 0.00 0.00 67 1012.7
20260505172504 65 154 3.0 7.0 0.00 0.00 0.00 65 1012.7
20260505172005 65 168 2.0 8.0 0.00 0.00 0.00 66 1012.8
20260505171506 65 203 1.0 8.0 0.00 0.00 0.00 65 1012.8
20260505171002 65 168 1.0 3.0 0.00 0.00 0.00 67 1012.9
20260505170503 66 198 1.0 3.0 0.00 0.00 0.00 66 1013.0
20260505170010 65 359 1.0 5.0 0.00 0.00 0.00 66 1013.1
20260505165503 65 274 1.0 5.0 0.00 0.00 0.00 66 1013.1
20260505165003 66 156 2.0 4.0 0.00 0.00 0.00 66 1013.1
20260505164512 66 168 2.0 3.0 0.00 0.00 0.00 65 1013.1
20260505164006 66 166 1.0 5.0 0.00 0.00 0.00 65 1013.2
20260505163508 65 153 1.0 5.0 0.00 0.00 0.00 67 1013.1
20260505163021 65 152 1.0 8.0 0.00 0.00 0.00 68 1013.3
20260505162508 65 159 2.0 8.0 0.00 0.00 0.00 67 1013.4
20260505162007 65 150 2.0 7.0 0.00 0.00 0.00 66 1013.3
20260505161522 65 173 2.0 7.0 0.00 0.00 0.00 67 1013.2
20260505161003 65 162 2.0 5.0 0.00 0.00 0.00 67 1013.3
20260505160503 65 194 2.0 5.0 0.00 0.00 0.00 67 1013.3
20260505153015 65 176 2.0 5.0 0.00 0.00 0.00 67 1013.5
20260505152509 65 142 2.0 5.0 0.00 0.00 0.00 68 1013.5
20260505152007 64 195 2.0 5.0 0.00 0.00 0.00 68 1013.6
20260505151521 65 163 3.0 5.0 0.00 0.00 0.00 67 1013.6
20260505151007 65 198 2.0 4.0 0.00 0.00 0.00 66 1013.5
20260505150508 65 168 1.0 5.0 0.00 0.00 0.00 67 1013.4
20260505140506 62 188 3.0 6.0 0.00 0.00 0.00 72 1013.2
20260505125014 60 154 1.0 5.0 0.00 0.00 0.00 75 1013.2
20260505124523 60 148 2.0 5.0 0.00 0.00 0.00 76 1013.1
20260505124012 60 167 1.0 4.0 0.00 0.00 0.00 77 1013.0
20260505123515 59 182 1.0 4.0 0.00 0.00 0.00 78 1012.9
20260505123028 59 154 1.0 4.0 0.00 0.00 0.00 78 1012.9
20260505122508 59 186 1.0 4.0 0.00 0.00 0.00 79 1012.8
20260505122008 58 105 2.0 4.0 0.00 0.00 0.00 79 1012.8
20260505121514 58 169 1.0 6.0 0.00 0.00 0.00 79 1012.9
20260505121007 58 150 1.0 6.0 0.00 0.00 0.00 80 1012.9
20260505120510 57 141 2.0 5.0 0.00 0.00 0.00 79 1012.9
20260505120019 57 141 1.0 5.0 0.00 0.00 0.00 79 1012.9
20260505115508 57 189 1.0 6.0 0.00 0.00 0.00 81 1013.0
20260505115009 57 162 1.0 6.0 0.00 0.00 0.00 80 1012.8
20260505114522 57 183 1.0 5.0 0.00 0.00 0.00 81 1012.8
20260505114011 56 170 1.0 5.0 0.00 0.00 0.00 82 1012.8
20260505113512 56 136 1.0 3.0 0.00 0.00 0.00 83 1012.8
20260505113026 56 165 1.0 3.0 0.00 0.00 0.00 83 1012.9
20260505112512 55 206 1.0 3.0 0.00 0.00 0.00 84 1012.8
20260505112011 55 170 1.0 3.0 0.00 0.00 0.00 84 1012.8
20260505111526 54 181 1.0 3.0 0.00 0.00 0.00 85 1012.9
20260505111005 54 182 1.0 3.0 0.00 0.00 0.00 86 1012.8
20260505110508 54 182 1.0 3.0 0.00 0.00 0.00 86 1012.9
20260505102005 49 56 0.0 2.0 0.00 0.00 0.00 92 1012.6
20260505101504 49 56 1.0 2.0 0.00 0.00 0.00 92 1012.5
20260505101004 49 251 0.0 2.0 0.00 0.00 0.00 91 1012.5
20260505100503 49 252 0.0 2.0 0.00 0.00 0.00 91 1012.4
20260505100004 49 159 0.0 2.0 0.00 0.00 0.00 91 1012.4
20260505095507 49 159 0.0 2.0 0.00 0.00 0.00 90 1012.4
20260505095003 49 159 0.0 2.0 0.00 0.00 0.00 90 1012.3
20260505094504 49 159 0.0 2.0 0.00 0.00 0.00 90 1012.4
20260505094002 49 159 0.0 2.0 0.00 0.00 0.00 90 1012.5
20260505093502 50 163 0.0 2.0 0.00 0.00 0.00 90 1012.4
20260505093004 49 163 0.0 2.0 0.00 0.00 0.00 90 1012.4
20260505092504 49 163 0.0 2.0 0.00 0.00 0.00 90 1012.5
20260505092004 49 160 0.0 2.0 0.00 0.00 0.00 91 1012.6
20260505091506 49 154 0.0 2.0 0.00 0.00 0.00 91 1012.5
20260505091007 49 165 0.0 2.0 0.00 0.00 0.00 90 1012.3
20260505090504 49 165 0.0 2.0 0.00 0.00 0.00 91 1012.3
20260505090007 49 179 0.0 2.0 0.00 0.00 0.00 91 1012.3
20260505085504 49 179 0.0 2.0 0.00 0.00 0.00 91 1012.4
20260505085004 49 179 0.0 2.0 0.00 0.00 0.00 91 1012.4
20260505084506 48 179 0.0 2.0 0.00 0.00 0.00 91 1012.4
20260505084004 48 161 0.0 2.0 0.00 0.00 0.00 91 1012.4
20260505083504 48 160 0.0 2.0 0.00 0.00 0.00 91 1012.5
20260505083006 48 176 0.0 2.0 0.00 0.00 0.00 90 1012.4
20260505082508 48 176 0.0 2.0 0.00 0.00 0.00 90 1012.5